Home > Weather > Jamestown > Past weeks

Flag for Saint Helena Weather for the Past 2 Weeks in Jamestown, Saint Helena

Now
67 °F

Mild.


Feels Like: 67 °F
Forecast: N/A
Wind: 8 mph from Southeast

Location: Saint Helena Island

Current Time: May 6, 2016 at 6:51:22 PM

Latest Report: May 6, 2016 at 6:00 PM


Visibility: N/A

Pressure: 30.02 "Hg

Humidity: 86%

Dew Point: 63 °F

Location of JamestownLocation

Historic Weather in Jamestown — Graph

°F

Jamestown Temperature Yesterday

Maximum temperature yesterday: 74 °F (at 2:00 PM)
Minimum temperature yesterday: 65 °F (at 1:00 AM)
Average temperature yesterday: 68 °F

High & Low Weather Summary for the Past Weeks

 TemperatureHumidityPressure
High74 °F (May 5, 2:00 PM)100% (Apr 30, 5:00 PM)30.09 "Hg (Apr 30, 5:00 PM)
Low64 °F (May 6, 5:00 AM)58% (Apr 22, 11:00 AM)29.95 "Hg (Apr 24, 3:00 PM)
Average68 °F84%30.02 "Hg
* Reported Apr 21 5:00 PM — May 6 5:00 PM, Jamestown, Weather by CustomWeather, © 2016

Note: Actual official high and low records may vary slightly from our data, if they occured in-between our weather recording intervals... More about our weather records

Advertising

Jamestown Weather History for the Previous 24 Hours

Scroll right to see more
 ConditionsComfort  
Time TempWeatherWind HumidityBarometerVisibility
5:00 PM
Fri, May 6
69 °FMild.8 mph83%30.01 "HgN/A
4:00 PM69 °FMild.12 mph82%30.01 "HgN/A
3:00 PM70 °FPartly sunny.8 mph78%30.02 "Hg25 mi
2:00 PM73 °FPartly sunny.10 mph73%30.02 "Hg31 mi
1:00 PM71 °FPartly sunny.12 mph78%30.04 "Hg31 mi
12:00 PM71 °FPartly sunny.10 mph71%30.06 "Hg31 mi
11:00 AM69 °FPartly sunny.13 mph86%30.08 "Hg22 mi
10:00 AM71 °FOvercast.12 mph81%30.08 "Hg22 mi
9:00 AM69 °FLow clouds.10 mph87%30.07 "Hg25 mi
8:00 AM67 °FMild.8 mph94%30.06 "HgN/A
7:00 AM64 °FMild.6 mph99%30.05 "HgN/A
5:00 AM64 °FMild.8 mph99%30.03 "HgN/A
4:00 AM64 °FMild.7 mph99%30.03 "HgN/A
2:00 AM65 °FMild.7 mph98%30.05 "HgN/A
1:00 AM66 °FMild.8 mph97%30.06 "HgN/A
11:00 PM
Thu, May 5
66 °FMild.8 mph96%30.07 "HgN/A
10:00 PM67 °FMild.10 mph94%30.07 "HgN/A
9:00 PM67 °FMild.10 mph91%30.06 "HgN/A
8:00 PM67 °FMild.9 mph92%30.05 "HgN/A
7:00 PM67 °FMild.9 mph92%30.03 "HgN/A
6:00 PM67 °FMild.12 mph90%30.02 "HgN/A
Weather by CustomWeather, © 2016

See weather overviewHow to use our weather pages